Temperature
17 18 18 18 21 22 21 19 19 18 18 15 15 16 17 17 17 15 11 12 12 12 12 12 12 13 13 13 13 13 13 13 13 13 14 14 14 14 14 14 14 14 14 14 14 14 14 14 14
17 18 18 19 22 21 20 19 18 17 16 14 14 15 15 14 12 11 11 11 12 12 12 12 12 12 12 12 13 13 13 13 13 13 13 13 13 13 13 14 14 14 14 14 14 14 14 14 14
17 17 18 21 21 21 20 18 17 15 14 14 14 13 13 12 10 10 11 11 11 11 11 12 12 12 12 12 12 12 13 13 13 13 13 13 13 13 13 13 13 13 14 14 14 14 14 14 14
17 17 18 21 20 18 18 17 16 15 14 13 14 13 11 10 10 10 11 11 11 11 11 11 12 12 12 12 12 12 12 12 13 13 13 13 13 13 13 13 13 13 13 13 13 13 13 13 13
17 18 20 19 18 17 16 15 15 16 15 13 13 13 11 9 10 10 10 11 11 11 11 11 11 11 12 12 12 12 12 12 12 12 12 12 12 12 13 13 13 13 13 13 13 13 13 13 13
17 19 20 19 18 16 15 14 14 15 14 12 13 13 11 9 10 10 10 10 10 10 11 11 11 11 11 12 12 12 12 12 12 12 12 12 12 12 12 12 12 12 12 13 13 13 13 13 13
18 19 19 19 17 16 15 13 14 15 14 12 12 13 10 9 9 10 10 10 10 10 10 10 10 11 11 11 11 11 11 11 11 11 11 11 11 11 12 12 12 12 12 12 12 12 12 12 13
16 18 18 18 17 17 14 13 12 13 13 10 10 12 11 9 9 9 9 10 10 10 10 10 10 10 10 11 11 11 11 11 11 11 11 11 11 11 11 11 11 11 11 12 12 12 12 12 12
15 18 18 17 17 16 13 13 11 10 10 9 8 9 8 9 9 9 9 9 9 9 10 10 10 10 10 10 10 10 10 10 10 10 10 10 10 10 10 11 11 11 11 11 11 11 12 12 12
16 18 17 16 16 15 13 13 11 11 11 9 8 7 8 8 8 9 9 9 9 9 9 9 9 9 10 10 10 10 10 10 10 10 10 10 10 10 10 10 10 10 11 11 11 11 11 11 11
15 16 14 13 12 12 12 11 10 12 12 10 9 7 7 8 8 8 8 8 8 8 9 9 9 9 9 9 9 9 9 9 9 9 9 9 9 9 9 10 10 10 10 10 10 10 10 11 11
13 12 11 11 10 11 11 10 10 10 10 8 8 7 7 7 7 8 8 8 8 8 8 8 8 8 8 8 8 9 9 9 9 9 9 9 9 9 9 9 9 9 9 10 10 10 10 10 10
13 11 9 9 9 9 9 9 9 8 6 7 7 6 6 6 7 7 7 7 7 8 8 8 8 8 8 8 8 8 8 8 8 8 8 8 8 8 9 9 9 9 9 9 9 9 9 9 9
11 10 10 9 9 9 10 8 8 7 6 6 6 6 6 6 6 6 7 7 7 7 7 7 7 7 7 7 7 7 7 7 7 7 8 8 8 8 8 8 8 8 8 8 8 8 9 9 9
10 11 11 10 10 9 10 10 9 7 5 5 5 5 5 5 6 6 6 6 6 6 6 7 7 7 7 7 7 7 7 7 7 7 7 7 7 7 7 7 7 7 7 7 8 8 8 8 8
12 13 13 11 10 9 11 13 10 6 6 6 5 5 5 5 5 5 5 6 6 6 6 6 6 6 6 6 6 6 6 6 6 6 6 6 6 6 6 7 7 7 7 7 7 7 7 7 7
13 14 14 12 10 10 11 13 9 5 6 6 5 4 4 4 4 5 5 5 5 5 5 6 6 6 6 6 6 5 5 5 5 6 6 6 6 6 6 6 6 6 6 6 6 6 6 6 7
14 14 13 13 10 9 10 11 9 5 5 6 5 4 4 4 4 4 4 4 5 5 5 5 5 5 5 5 5 5 5 5 5 5 5 5 5 5 5 5 5 5 5 5 5 5 6 6 6
13 13 13 12 9 9 10 11 10 6 5 5 5 4 4 3 3 3 4 4 4 4 4 4 5 5 5 5 5 5 4 4 4 4 4 4 4 4 4 4 4 4 4 5 5 5 5 5 5
11 12 12 10 8 9 10 10 9 7 6 5 5 4 4 3 2 3 3 3 3 4 4 4 4 4 4 4 4 4 4 4 4 4 4 4 4 4 4 4 4 4 4 4 4 4 4 4 4
11 12 11 10 8 8 8 11 10 7 5 5 4 4 4 3 2 2 2 3 3 3 3 3 3 3 3 3 3 3 3 3 3 3 3 3 3 3 3 3 3 3 3 3 3 3 3 3 3
11 10 9 9 10 11 9 12 12 8 6 5 4 4 3 3 2 2 2 2 2 2 2 3 3 3 3 3 3 2 2 2 2 2 2 2 2 2 2 2 2 2 2 2 2 3 2 2 2
9 8 8 8 9 10 9 10 12 8 7 7 5 4 3 2 2 2 2 2 2 2 2 2 2 2 2 2 2 2 1 2 2 1 1 1 2 2 1 2 2 2 2 2 2 2 2 2 2
7 8 8 8 9 9 10 10 12 9 8 7 6 4 3 2 1 1 1 1 1 1 1 1 1 1 1 1 1 1 1 1 1 1 1 1 1 1 1 1 1 1 1 1 1 1 1 1 1
8 9 10 9 9 10 8 8 10 9 7 6 5 3 2 2 1 1 1 1 1 1 1 1 1 1 1 1 0 0 0 0 -0 -0 -0 -0 -0 -0 -0 -0 0 0 0 0 0 1 1 1 1
8 9 10 10 10 10 6 7 9 6 4 3 3 2 2 1 1 0 0 0 0 0 0 0 0 0 0 0 -0 -0 -0 -1 -1 -1 -1 -1 -1 -1 -1 -1 -1 -0 -0 -0 -0 0 0 0 0
7 8 8 8 7 8 9 8 7 5 4 3 2 2 1 1 0 -0 -0 -0 -0 -0 -0 -0 -0 -0 -0 -1 -1 -1 -1 -1 -1 -2 -2 -2 -2 -2 -2 -1 -1 -1 -1 -1 -1 -1 -0 -0 -0
6 7 7 7 8 9 9 8 9 6 5 4 3 2 1 0 -0 -0 -1 -1 -1 -1 -1 -1 -1 -1 -1 -1 -1 -1 -2 -2 -2 -2 -2 -2 -2 -2 -2 -2 -2 -2 -2 -2 -1 -1 -1 -1 -1
5 5 7 7 7 8 9 9 7 6 5 4 3 2 1 -0 -1 -1 -1 -1 -1 -1 -1 -1 -1 -2 -2 -2 -2 -2 -2 -2 -2 -3 -3 -3 -3 -3 -3 -3 -3 -3 -2 -2 -2 -2 -2 -2 -2
5 6 6 7 6 6 7 8 5 4 4 3 2 1 -0 -1 -1 -1 -1 -2 -1 -2 -2 -2 -2 -2 -2 -2 -3 -3 -3 -3 -3 -3 -3 -3 -3 -3 -3 -3 -3 -3 -3 -3 -3 -3 -2 -2 -2
Wind_Speed
5 2 2 2 3 3 4 3 3 4 4 3 3 2 3 3 3 4 4 6 6 5 5 6 8 9 10 10 10 10 10 10 10 10 10 10 11 11 11 10 11 11 10 10 10 10 10 10 9
3 2 2 2 5 6 4 4 5 4 5 5 4 4 4 5 5 4 3 6 6 5 6 7 9 9 10 11 11 10 10 10 10 10 10 10 10 11 11 10 10 10 10 10 10 10 9 9 9
0 1 1 3 4 5 5 5 6 5 5 3 3 3 3 3 3 3 4 5 5 6 6 8 10 10 11 10 10 10 10 10 10 10 10 10 10 10 10 10 10 10 10 9 9 9 9 8 8
1 2 1 3 4 1 2 5 7 8 5 2 4 5 4 4 3 4 4 4 4 6 7 8 10 10 11 11 11 10 10 10 10 10 10 9 9 10 10 10 9 9 9 9 9 9 9 8 8
1 2 3 3 3 3 3 4 7 6 5 4 4 5 4 3 5 5 4 5 5 6 7 8 10 10 11 11 11 11 10 10 10 10 10 10 10 10 10 10 9 9 9 9 8 8 8 8 7
2 2 4 6 5 4 4 4 6 5 5 4 4 5 4 4 5 5 5 6 7 7 7 8 9 10 11 11 11 12 11 10 10 10 10 10 10 10 10 10 10 10 9 9 9 8 8 8 7
2 2 3 5 7 6 4 4 5 5 5 4 3 5 5 3 4 4 5 6 7 8 8 8 8 8 10 11 11 12 11 11 10 10 10 10 10 10 10 10 10 10 10 9 9 9 9 8 7
1 2 4 5 7 6 6 4 2 3 4 3 1 4 4 2 3 4 5 6 7 8 9 9 9 8 8 8 10 11 11 11 10 10 10 9 9 9 10 9 10 9 10 9 9 8 8 8 7
1 4 6 7 7 6 7 5 3 2 5 3 2 2 3 5 5 5 5 6 6 7 8 9 9 9 8 7 8 8 9 10 9 8 9 8 7 7 7 9 10 9 9 9 8 7 7 6 5
2 5 4 2 3 6 8 5 6 6 5 3 3 4 6 6 6 5 5 5 5 6 7 8 8 8 8 7 7 6 7 7 8 8 7 6 6 6 6 7 8 8 8 7 7 7 5 4 4
1 2 3 2 3 6 7 5 5 6 5 4 5 6 6 6 6 5 5 4 4 5 6 7 7 7 7 6 6 6 6 7 7 8 8 6 5 5 5 5 5 6 6 6 6 5 5 5 4
3 3 3 3 3 5 6 6 4 3 1 2 5 8 8 7 5 5 4 4 4 5 5 6 7 7 7 6 6 6 6 6 7 7 8 6 5 5 5 5 5 5 5 5 5 5 5 5 4
3 3 3 4 5 5 6 5 4 3 3 5 8 8 8 7 5 4 4 4 4 4 5 5 6 6 6 6 6 6 6 6 6 6 8 7 5 5 5 4 5 5 5 5 5 5 5 5 4
4 6 4 3 3 3 5 3 3 4 6 7 8 7 7 6 5 4 3 3 3 4 4 4 5 6 6 6 5 5 6 6 6 6 7 8 6 5 5 4 4 5 5 5 5 5 4 4 4
5 5 3 1 2 2 4 4 5 6 8 7 7 7 6 5 4 3 3 2 2 2 3 4 4 5 6 5 5 5 6 6 6 6 7 7 7 6 6 5 4 5 5 5 5 5 4 4 4
3 4 4 3 2 3 6 8 5 8 9 8 7 7 6 5 4 3 2 2 2 2 3 3 3 4 5 5 5 5 5 6 6 6 7 7 7 6 5 5 5 6 5 4 4 4 4 4 4
4 5 6 4 3 3 7 7 4 7 9 8 8 7 6 5 4 3 2 2 2 2 2 3 3 4 4 4 4 4 5 5 6 6 7 8 8 7 6 5 5 5 4 4 4 3 4 4 4
5 6 5 6 4 5 8 9 5 7 9 9 8 8 7 6 5 4 3 2 2 1 2 2 3 3 3 2 2 3 4 5 6 6 7 8 8 8 7 5 5 5 4 4 4 4 4 4 4
4 5 6 4 2 5 10 12 9 8 10 10 10 9 8 7 5 4 3 2 2 1 2 2 2 3 2 2 2 2 3 3 4 6 8 8 8 8 7 6 5 5 4 4 5 4 4 3 4
4 6 6 3 2 5 8 12 9 9 11 11 11 10 9 7 6 5 4 3 2 1 1 1 2 2 2 2 2 1 2 2 3 5 6 8 8 8 7 7 5 5 4 4 4 4 3 3 3
6 7 6 4 2 4 6 9 8 6 8 8 9 9 8 8 8 6 5 4 3 2 1 0 1 1 2 2 1 1 1 1 2 4 5 7 8 8 7 7 6 6 5 4 4 4 4 3 3
7 3 3 3 5 5 4 7 6 5 6 8 9 9 9 8 8 7 6 5 3 2 1 0 1 1 2 2 1 2 2 2 3 4 4 6 7 7 7 7 7 6 5 5 5 5 4 4 4
1 1 2 4 5 6 6 8 6 4 6 7 8 8 8 8 8 7 6 5 4 2 1 1 1 1 1 1 1 1 2 2 3 3 4 5 5 6 7 7 7 6 5 6 6 6 5 5 5
5 2 1 2 4 7 8 9 7 5 5 3 4 7 7 8 7 6 5 4 4 2 1 1 1 0 1 1 1 2 2 3 4 4 4 4 4 5 7 7 7 7 6 6 6 6 7 6 7
2 2 2 3 5 7 2 6 7 2 2 2 3 4 6 6 7 6 6 5 4 3 2 1 1 0 1 1 2 2 3 3 4 5 4 5 5 5 7 7 7 7 7 7 7 7 7 7 7
6 5 5 6 6 5 3 7 4 0 1 1 1 2 4 5 6 6 6 5 4 4 3 2 1 1 2 2 2 2 3 3 3 4 5 5 5 6 7 8 8 8 8 8 7 6 7 7 7
5 5 2 2 3 6 6 6 5 2 2 2 2 2 3 4 5 5 5 5 4 4 3 3 2 2 2 3 3 3 3 4 5 5 5 5 5 6 8 8 9 8 8 8 8 6 7 7 7
2 4 3 4 4 8 7 6 4 3 4 4 4 4 4 4 4 4 4 4 3 3 3 3 3 3 3 3 3 3 4 5 5 5 6 6 7 7 8 8 9 9 8 8 8 8 8 8 8
4 4 5 5 4 6 7 5 1 3 3 4 4 4 4 4 4 4 4 3 2 2 2 3 3 3 3 4 4 4 4 5 5 5 6 7 7 8 8 8 9 9 9 9 8 8 9 9 8
6 6 7 6 6 5 6 6 3 1 1 1 2 2 3 3 3 3 3 3 2 2 2 3 3 3 4 4 4 5 5 5 5 6 7 7 8 8 8 8 9 9 9 9 9 9 9 9 9
Wind_Direction
327 316 261 231 201 197 183 145 140 134 124 80 70 87 91 58 35 86 50 17 4 11 23 34 40 50 52 52 51 50 52 53 54 54 54 54 54 53 52 51 51 51 51 51 53 56 58 59 60
326 296 232 221 220 207 179 155 153 125 115 114 92 90 93 78 48 61 37 8 5 25 33 36 47 53 51 50 49 48 48 53 53 51 52 53 52 50 49 49 50 49 49 49 50 52 53 55 58
244 324 222 194 217 222 169 150 138 117 122 121 105 70 71 78 58 42 15 0 16 38 41 45 48 54 51 48 46 44 46 50 49 46 49 51 51 50 48 47 48 47 46 47 49 50 49 51 56
228 172 177 209 186 143 129 139 140 138 133 95 126 111 96 55 35 27 19 22 41 45 43 49 48 51 51 48 45 45 47 49 46 44 46 47 47 47 46 44 46 47 46 46 47 48 47 48 52
241 202 183 183 170 134 125 137 156 155 145 130 140 124 113 72 48 50 47 46 51 48 45 50 48 50 51 48 45 45 47 49 46 43 44 44 45 46 44 42 43 45 44 44 46 45 44 43 47
178 205 209 199 173 150 142 153 162 154 137 132 141 131 113 86 59 53 56 55 51 48 45 48 49 48 48 45 44 44 46 46 44 42 41 41 41 41 40 40 39 40 42 42 42 42 39 37 42
210 203 212 184 171 173 159 156 172 160 149 137 149 140 130 108 61 68 70 62 53 47 44 41 42 45 47 46 45 44 43 42 40 40 41 39 38 35 36 36 35 35 35 37 37 35 35 34 38
143 166 171 181 182 181 153 147 136 163 137 107 157 158 145 137 98 91 79 66 56 47 40 36 34 36 39 45 45 44 43 41 38 38 38 36 35 34 34 32 32 31 31 31 35 32 31 31 37
210 206 208 196 190 171 158 157 129 106 122 114 83 63 75 119 121 104 86 67 55 45 38 33 31 31 31 37 40 41 44 40 36 33 31 29 26 24 26 28 28 28 27 24 26 25 24 22 34
205 218 215 183 186 161 161 165 151 154 151 147 122 91 102 120 122 110 91 74 55 42 34 29 28 26 27 30 33 31 34 33 31 27 24 22 22 18 15 26 24 24 22 18 17 13 8 4 10
114 199 138 120 127 149 158 156 156 171 181 190 179 150 131 126 118 107 93 78 62 49 38 31 28 26 26 27 29 28 27 27 24 23 18 16 20 18 13 9 10 8 7 2 2 357 358 357 354
116 89 113 122 120 147 157 154 154 179 128 96 141 143 139 134 125 116 103 83 65 55 42 34 29 29 27 28 29 29 29 26 23 19 15 13 17 11 11 8 360 359 356 353 349 346 345 347 347
138 131 92 97 107 121 131 147 156 162 128 113 120 131 139 137 130 116 102 87 70 55 41 32 31 32 29 32 29 30 27 25 21 18 16 8 7 4 3 3 359 355 351 349 342 340 342 339 337
118 118 116 107 122 144 149 156 171 181 151 135 134 139 143 140 136 121 102 85 65 52 41 35 36 33 33 36 34 29 25 21 19 20 17 8 2 359 355 354 355 354 348 342 336 334 333 333 329
127 123 124 141 167 166 167 205 209 167 160 156 155 152 147 145 141 135 124 102 75 57 45 37 38 35 37 35 33 31 26 21 19 16 17 13 4 359 356 349 352 353 344 339 337 335 333 330 327
150 177 204 173 177 184 215 237 172 165 171 173 172 169 164 159 154 144 129 112 86 69 51 38 36 36 38 38 32 30 27 26 22 16 14 13 8 1 356 351 351 349 343 338 337 335 327 321 317
194 220 226 199 192 194 222 246 163 175 186 188 185 183 181 175 171 162 146 127 104 81 65 50 39 34 32 37 38 33 30 30 25 19 14 8 8 1 355 351 346 341 339 333 328 324 318 314 314
210 224 228 220 190 211 230 243 206 192 201 204 198 195 192 190 190 178 163 143 121 90 68 55 49 34 27 35 44 40 33 26 24 18 11 4 5 1 353 346 345 339 336 329 321 313 312 310 308
214 222 238 238 212 232 242 252 240 209 213 216 211 206 204 201 190 180 172 156 131 97 73 53 44 30 23 18 12 12 12 10 15 13 8 5 1 359 355 348 342 336 327 323 317 312 303 311 315
206 230 246 253 236 249 264 264 252 219 216 218 215 211 209 201 191 187 184 174 166 146 102 61 44 28 19 7 354 343 348 1 5 2 4 2 360 358 351 347 341 334 322 318 315 309 300 304 313
227 237 243 252 274 245 279 267 228 213 214 219 221 219 212 203 197 193 192 190 184 177 164 74 37 26 18 9 15 5 354 341 346 348 351 354 354 353 349 342 338 332 325 311 307 291 286 290 288
240 245 230 229 247 251 244 274 234 202 210 218 218 215 211 205 202 197 195 194 194 189 167 103 40 30 26 16 5 356 333 333 334 332 334 340 349 350 347 341 336 329 324 316 309 293 278 274 271
207 95 209 240 246 263 239 254 258 199 235 227 219 216 212 205 202 200 197 195 190 181 170 154 83 38 27 18 1 343 334 329 326 324 328 336 341 345 344 339 334 326 318 311 310 299 277 266 264
126 106 100 202 231 252 235 235 264 220 227 217 211 212 209 203 200 198 193 188 182 175 172 167 141 37 10 359 342 329 325 323 324 323 325 329 328 330 337 333 329 324 317 311 303 297 285 268 261
179 182 236 236 231 246 186 236 259 234 210 219 223 215 205 197 195 195 191 191 189 187 190 197 200 272 308 305 306 308 308 308 310 313 317 320 320 320 324 324 320 319 314 308 302 294 290 274 264
201 216 225 245 257 264 227 239 259 56 297 272 236 202 192 193 197 198 198 197 196 197 202 214 240 265 282 289 296 300 301 299 300 303 305 304 305 307 311 311 310 310 309 307 300 292 289 281 271
183 215 270 255 274 267 247 256 277 222 233 217 210 202 201 200 202 203 202 201 201 205 213 224 240 265 279 283 290 292 294 296 297 297 294 296 297 302 303 305 306 306 307 305 299 288 288 283 274
272 168 173 208 237 258 261 255 252 217 215 213 220 220 215 207 207 206 206 208 208 211 221 233 243 255 273 278 282 288 292 294 295 294 294 295 297 299 299 300 300 301 302 301 297 290 287 282 277
174 194 214 214 242 250 265 262 243 202 203 215 222 223 216 208 207 207 207 208 210 217 223 233 246 260 274 280 281 286 290 291 293 294 294 295 295 297 297 297 297 298 298 297 294 289 287 281 276
225 217 196 213 231 235 261 270 79 157 169 228 246 235 213 207 208 206 206 211 218 229 238 244 253 262 275 281 279 283 287 289 291 292 295 297 296 295 295 295 294 294 295 293 290 288 285 280 276
Height
1527 1527 1529 1530 1530 1527 1530 1535 1535 1540 1542 1546 1546 1546 1545 1547 1549 1557 1558 1555 1555 1555 1555 1555 1555 1554 1554 1553 1553 1553 1552 1552 1551 1551 1550 1549 1549 1548 1548 1548 1547 1547 1546 1546 1546 1545 1545 1544 1544
1527 1528 1531 1530 1526 1528 1533 1535 1538 1541 1545 1547 1548 1548 1549 1552 1554 1556 1555 1555 1555 1556 1556 1555 1555 1554 1554 1554 1553 1553 1552 1552 1551 1551 1550 1550 1549 1549 1548 1548 1547 1547 1547 1546 1546 1545 1545 1545 1544
1528 1529 1531 1528 1526 1525 1531 1536 1539 1545 1547 1547 1549 1550 1552 1554 1555 1555 1555 1555 1556 1556 1556 1555 1555 1555 1554 1554 1553 1553 1552 1552 1551 1551 1550 1550 1549 1548 1548 1548 1547 1547 1546 1546 1546 1545 1545 1545 1544
1528 1530 1531 1528 1529 1533 1534 1538 1542 1544 1547 1548 1549 1551 1553 1555 1555 1555 1555 1555 1556 1556 1556 1555 1555 1555 1554 1554 1553 1553 1552 1552 1551 1551 1550 1549 1549 1548 1548 1547 1547 1546 1546 1546 1545 1545 1545 1544 1544
1529 1530 1528 1530 1533 1537 1540 1542 1543 1543 1545 1548 1549 1550 1554 1555 1554 1554 1555 1555 1556 1556 1556 1555 1555 1555 1554 1554 1553 1553 1552 1551 1551 1550 1550 1549 1548 1548 1547 1547 1546 1546 1545 1545 1545 1544 1544 1544 1544
1530 1528 1526 1528 1533 1538 1541 1543 1544 1544 1546 1549 1550 1551 1554 1554 1554 1554 1555 1555 1555 1555 1555 1555 1555 1554 1554 1554 1553 1552 1552 1551 1550 1550 1549 1548 1548 1547 1547 1546 1546 1545 1545 1544 1544 1544 1543 1543 1543
1530 1527 1526 1527 1533 1537 1541 1544 1544 1544 1546 1549 1550 1551 1553 1554 1554 1554 1554 1555 1555 1555 1555 1555 1554 1554 1554 1553 1552 1552 1551 1551 1550 1549 1548 1548 1547 1546 1546 1545 1545 1545 1544 1544 1543 1543 1543 1542 1542
1528 1529 1530 1530 1531 1535 1541 1544 1545 1545 1547 1549 1550 1551 1553 1553 1553 1553 1554 1554 1554 1554 1554 1554 1554 1553 1553 1552 1552 1551 1550 1550 1549 1548 1548 1547 1546 1546 1545 1545 1544 1544 1543 1543 1542 1542 1542 1541 1541
1528 1529 1527 1529 1530 1534 1540 1542 1545 1546 1547 1549 1549 1550 1551 1551 1552 1553 1554 1554 1554 1554 1554 1553 1553 1553 1552 1551 1551 1550 1549 1549 1548 1548 1547 1546 1546 1545 1544 1544 1543 1543 1542 1542 1541 1541 1541 1540 1540
1528 1526 1526 1531 1532 1534 1539 1541 1544 1546 1547 1548 1549 1549 1549 1550 1551 1552 1553 1553 1553 1553 1553 1553 1552 1552 1551 1551 1550 1549 1548 1548 1547 1547 1546 1545 1545 1544 1543 1542 1542 1541 1541 1540 1540 1540 1539 1539 1539
1529 1528 1532 1534 1535 1536 1539 1542 1543 1544 1545 1547 1547 1548 1549 1550 1551 1551 1552 1552 1552 1552 1552 1552 1551 1551 1550 1550 1549 1548 1548 1547 1546 1545 1545 1544 1543 1543 1542 1541 1540 1540 1539 1539 1538 1538 1537 1537 1537
1531 1534 1535 1536 1536 1537 1539 1541 1543 1544 1545 1546 1546 1547 1548 1549 1549 1550 1551 1551 1551 1551 1551 1551 1550 1550 1550 1549 1548 1548 1547 1546 1545 1544 1543 1543 1542 1541 1540 1540 1539 1538 1537 1537 1536 1536 1535 1535 1535
1531 1535 1537 1537 1538 1539 1540 1541 1543 1544 1545 1544 1545 1546 1547 1548 1549 1549 1550 1550 1550 1550 1550 1550 1550 1549 1549 1548 1547 1547 1546 1545 1544 1543 1542 1542 1541 1540 1539 1538 1537 1536 1536 1535 1534 1534 1533 1533 1533
1533 1536 1537 1538 1539 1540 1540 1542 1543 1543 1544 1544 1545 1546 1546 1547 1548 1548 1548 1549 1549 1549 1549 1549 1549 1548 1548 1547 1546 1546 1545 1544 1543 1542 1541 1540 1539 1539 1538 1537 1536 1535 1534 1533 1532 1532 1531 1530 1530
1535 1536 1537 1538 1539 1540 1541 1540 1540 1541 1543 1544 1544 1545 1546 1546 1547 1547 1547 1548 1548 1548 1548 1548 1548 1547 1547 1546 1545 1545 1544 1543 1542 1541 1540 1539 1538 1537 1536 1535 1533 1532 1532 1531 1530 1530 1529 1528 1528
1533 1532 1531 1536 1538 1539 1540 1530 1538 1540 1541 1542 1543 1544 1544 1545 1545 1546 1546 1546 1547 1547 1547 1547 1546 1546 1545 1545 1544 1543 1543 1541 1540 1539 1538 1537 1536 1535 1534 1533 1532 1531 1530 1529 1528 1527 1527 1526 1525
1529 1526 1525 1533 1537 1538 1536 1529 1537 1539 1540 1541 1542 1542 1543 1543 1543 1544 1544 1545 1545 1545 1545 1545 1545 1544 1544 1543 1543 1542 1541 1540 1539 1538 1536 1535 1534 1533 1532 1531 1529 1528 1528 1527 1526 1525 1524 1523 1523
1523 1523 1525 1527 1533 1536 1533 1529 1535 1537 1538 1539 1540 1540 1541 1541 1541 1542 1542 1543 1543 1543 1544 1543 1543 1543 1542 1542 1541 1541 1540 1538 1537 1536 1534 1533 1532 1531 1530 1528 1527 1526 1525 1524 1523 1522 1521 1521 1520
1523 1523 1523 1527 1534 1534 1529 1527 1529 1534 1535 1536 1536 1537 1538 1538 1539 1540 1540 1541 1541 1541 1541 1541 1541 1541 1540 1540 1539 1538 1538 1537 1535 1534 1532 1531 1530 1528 1527 1526 1524 1523 1522 1521 1520 1519 1519 1518 1517
1525 1524 1523 1529 1534 1533 1528 1525 1525 1529 1530 1531 1532 1533 1534 1536 1536 1537 1538 1538 1538 1539 1539 1539 1539 1539 1538 1538 1537 1536 1535 1534 1533 1532 1530 1529 1527 1526 1524 1523 1522 1520 1519 1518 1517 1516 1515 1514 1514
1524 1523 1523 1527 1532 1533 1530 1517 1519 1523 1527 1528 1529 1530 1531 1532 1533 1533 1534 1535 1536 1536 1536 1536 1537 1536 1536 1535 1534 1533 1532 1531 1531 1530 1528 1526 1525 1523 1522 1520 1519 1517 1516 1515 1514 1513 1512 1511 1511
1522 1526 1528 1529 1527 1521 1527 1512 1507 1516 1522 1524 1525 1526 1527 1528 1530 1531 1532 1532 1533 1534 1534 1534 1534 1534 1533 1532 1532 1531 1529 1528 1527 1526 1525 1524 1522 1521 1519 1517 1516 1514 1513 1512 1510 1509 1508 1508 1508
1525 1529 1529 1528 1525 1523 1523 1519 1502 1515 1515 1516 1519 1521 1523 1525 1527 1528 1529 1530 1531 1531 1532 1532 1531 1531 1531 1530 1529 1528 1527 1526 1525 1523 1522 1520 1519 1518 1516 1514 1513 1511 1510 1508 1507 1506 1505 1504 1504
1529 1529 1529 1528 1525 1521 1515 1515 1499 1506 1507 1511 1515 1518 1520 1522 1524 1525 1526 1527 1528 1528 1529 1529 1529 1528 1528 1527 1526 1525 1524 1523 1522 1520 1519 1517 1516 1514 1513 1511 1510 1508 1506 1505 1503 1502 1501 1500 1500
1527 1523 1521 1520 1518 1509 1519 1516 1504 1505 1509 1511 1513 1515 1517 1519 1521 1522 1523 1524 1525 1525 1526 1526 1526 1525 1525 1524 1523 1522 1521 1520 1519 1517 1515 1513 1512 1511 1509 1508 1506 1504 1502 1501 1499 1498 1496 1495 1495
1523 1519 1517 1516 1508 1505 1520 1513 1503 1510 1511 1512 1513 1514 1515 1517 1518 1519 1520 1521 1522 1522 1523 1523 1523 1522 1522 1521 1520 1519 1518 1517 1515 1514 1512 1510 1508 1507 1505 1504 1502 1500 1498 1496 1495 1493 1492 1490 1490
1522 1520 1520 1519 1519 1515 1503 1505 1506 1509 1510 1511 1512 1513 1513 1515 1516 1517 1518 1518 1519 1520 1520 1520 1520 1519 1519 1518 1517 1516 1515 1513 1512 1510 1508 1507 1505 1503 1501 1499 1497 1495 1493 1492 1490 1488 1487 1486 1484
1523 1521 1523 1519 1516 1506 1496 1500 1497 1502 1505 1508 1510 1510 1511 1513 1514 1514 1515 1516 1516 1517 1517 1517 1517 1516 1515 1514 1513 1512 1511 1509 1508 1506 1505 1503 1501 1499 1497 1495 1493 1491 1489 1487 1485 1483 1482 1481 1479
1524 1524 1518 1514 1512 1506 1497 1492 1496 1499 1502 1505 1507 1508 1509 1510 1511 1512 1513 1513 1514 1514 1514 1514 1513 1512 1512 1511 1509 1508 1506 1505 1504 1502 1500 1498 1496 1494 1492 1490 1488 1486 1484 1482 1480 1478 1477 1475 1474
1518 1515 1515 1513 1513 1513 1503 1496 1501 1502 1503 1505 1506 1507 1508 1508 1509 1510 1510 1510 1510 1511 1511 1510 1510 1509 1508 1507 1505 1504 1502 1501 1499 1498 1496 1494 1492 1490 1487 1485 1483 1481 1479 1477 1475 1473 1471 1470 1468